Time,TemperatureF,DewpointF,PressureIn,WindDirection,WindDirectionDegrees,WindSpeedMPH,WindSpeedGustMPH,Humidity,HourlyPrecipIn,Conditions,Clouds,dailyrainin,SoftwareType,DateUTC
2013-05-30 00:08:00,70.9,65.0,29.90,SW,216,8.0,14.0,82,0.00,,,0.00,weatherlink.com 1.10,2013-05-30 05:08:00,
2013-05-30 00:23:00,70.8,65.0,29.90,SSE,165,9.0,17.0,83,0.00,,,0.00,weatherlink.com 1.10,2013-05-30 05:23:00,
2013-05-30 00:38:00,70.5,66.0,29.90,SE,141,8.0,14.0,84,0.00,,,0.00,weatherlink.com 1.10,2013-05-30 05:38:00,
2013-05-30 00:53:00,70.4,66.0,29.89,SSE,163,8.0,15.0,85,0.00,,,0.00,weatherlink.com 1.10,2013-05-30 05:53:00,
2013-05-30 01:23:00,69.8,66.0,29.89,SE,143,9.0,14.0,86,0.00,,,0.00,weatherlink.com 1.10,2013-05-30 06:23:00,
2013-05-30 01:38:00,70.0,65.0,29.88,South,173,7.0,12.0,85,0.00,,,0.00,weatherlink.com 1.10,2013-05-30 06:38:00,
2013-05-30 01:53:00,69.7,65.0,29.87,SE,141,12.0,15.0,86,0.00,,,0.00,weatherlink.com 1.10,2013-05-30 06:53:00,
2013-05-30 02:23:00,69.7,65.0,29.87,South,181,8.0,18.0,86,0.00,,,0.00,weatherlink.com 1.10,2013-05-30 07:23:00,
2013-05-30 02:38:00,69.7,65.0,29.86,SSE,163,9.0,15.0,86,0.00,,,0.00,weatherlink.com 1.10,2013-05-30 07:38:00,
2013-05-30 02:53:00,70.1,65.0,29.86,SSE,151,7.0,16.0,85,0.00,,,0.00,weatherlink.com 1.10,2013-05-30 07:53:00,
2013-05-30 03:08:00,70.0,65.0,29.86,SSE,161,13.0,16.0,85,0.00,,,0.00,weatherlink.com 1.10,2013-05-30 08:08:00,
2013-05-30 03:23:00,69.7,65.0,29.86,South,178,12.0,15.0,86,0.00,,,0.00,weatherlink.com 1.10,2013-05-30 08:23:00,
2013-05-30 03:38:00,69.9,66.0,29.86,SE,146,10.0,16.0,86,0.00,,,0.00,weatherlink.com 1.10,2013-05-30 08:38:00,
2013-05-30 03:53:00,69.9,66.0,29.86,SE,132,10.0,15.0,86,0.00,,,0.00,weatherlink.com 1.10,2013-05-30 08:53:00,
2013-05-30 04:09:00,70.2,66.0,29.86,SSE,152,12.0,16.0,85,0.00,,,0.00,weatherlink.com 1.10,2013-05-30 09:09:00,
2013-05-30 04:24:00,69.9,65.0,29.86,SSE,156,7.0,16.0,85,0.00,,,0.00,weatherlink.com 1.10,2013-05-30 09:24:00,
2013-05-30 04:39:00,69.5,65.0,29.86,SSE,153,11.0,16.0,86,0.00,,,0.00,weatherlink.com 1.10,2013-05-30 09:39:00,
2013-05-30 04:54:00,69.2,65.0,29.86,SE,142,9.0,13.0,87,0.00,,,0.00,weatherlink.com 1.10,2013-05-30 09:54:00,
2013-05-30 05:09:00,69.0,65.0,29.86,SSE,149,7.0,14.0,88,0.00,,,0.00,weatherlink.com 1.10,2013-05-30 10:09:00,
2013-05-30 05:24:00,69.1,66.0,29.86,SSE,167,9.0,15.0,88,0.00,,,0.00,weatherlink.com 1.10,2013-05-30 10:24:00,
2013-05-30 05:39:00,68.8,66.0,29.86,SSE,155,8.0,15.0,89,0.00,,,0.00,weatherlink.com 1.10,2013-05-30 10:39:00,
2013-05-30 05:54:00,68.9,66.0,29.86,SSE,158,9.0,15.0,89,0.00,,,0.00,weatherlink.com 1.10,2013-05-30 10:54:00,
2013-05-30 06:09:00,69.7,66.0,29.86,SSE,158,13.0,18.0,88,0.00,,,0.00,weatherlink.com 1.10,2013-05-30 11:09:00,
2013-05-30 06:24:00,70.7,67.0,29.86,South,187,11.0,19.0,87,0.00,,,0.00,weatherlink.com 1.10,2013-05-30 11:24:00,
2013-05-30 06:39:00,71.4,67.0,29.87,SSE,153,16.0,21.0,86,0.00,,,0.00,weatherlink.com 1.10,2013-05-30 11:39:00,
2013-05-30 06:54:00,72.2,68.0,29.87,SSE,152,10.0,24.0,85,0.00,,,0.00,weatherlink.com 1.10,2013-05-30 11:54:00,
2013-05-30 07:09:00,73.2,68.0,29.88,South,172,14.0,25.0,83,0.00,,,0.00,weatherlink.com 1.10,2013-05-30 12:09:00,
2013-05-30 07:24:00,73.7,68.0,29.87,SSE,166,13.0,23.0,83,0.00,,,0.00,weatherlink.com 1.10,2013-05-30 12:24:00,
2013-05-30 07:39:00,74.4,69.0,29.87,SE,136,23.0,23.0,82,0.00,,,0.00,weatherlink.com 1.10,2013-05-30 12:39:00,
2013-05-30 07:54:00,75.2,69.0,29.87,SSW,196,13.0,26.0,82,0.00,,,0.00,weatherlink.com 1.10,2013-05-30 12:54:00,
2013-05-30 08:09:00,74.0,69.0,29.87,SSE,155,16.0,24.0,83,0.00,,,0.00,weatherlink.com 1.10,2013-05-30 13:09:00,
2013-05-30 08:24:00,73.2,69.0,29.88,SSE,168,12.0,27.0,85,0.00,,,0.00,weatherlink.com 1.10,2013-05-30 13:24:00,
2013-05-30 08:39:00,73.4,69.0,29.88,South,172,13.0,23.0,86,0.00,,,0.00,weatherlink.com 1.10,2013-05-30 13:39:00,
2013-05-30 08:54:00,74.2,69.0,29.88,SSE,160,15.0,24.0,84,0.00,,,0.00,weatherlink.com 1.10,2013-05-30 13:54:00,
2013-05-30 09:24:00,75.0,69.0,29.87,South,178,12.0,25.0,82,0.00,,,0.00,weatherlink.com 1.10,2013-05-30 14:24:00,
2013-05-30 09:39:00,75.0,70.0,29.87,South,181,14.0,22.0,83,0.00,,,0.00,weatherlink.com 1.10,2013-05-30 14:39:00,
2013-05-30 09:54:00,75.8,71.0,29.86,SE,146,14.0,22.0,84,0.00,,,0.00,weatherlink.com 1.10,2013-05-30 14:54:00,
2013-05-30 10:09:00,77.2,71.0,29.85,SE,138,15.0,24.0,81,0.00,,,0.00,weatherlink.com 1.10,2013-05-30 15:09:00,
2013-05-30 10:24:00,77.5,71.0,29.86,SSW,210,12.0,25.0,80,0.00,,,0.00,weatherlink.com 1.10,2013-05-30 15:24:00,
2013-05-30 10:39:00,78.3,71.0,29.86,SSW,198,14.0,26.0,77,0.00,,,0.00,weatherlink.com 1.10,2013-05-30 15:39:00,
2013-05-30 10:54:00,78.4,71.0,29.87,South,183,20.0,26.0,77,0.00,,,0.00,weatherlink.com 1.10,2013-05-30 15:54:00,
2013-05-30 11:09:00,79.3,72.0,29.86,SSE,148,17.0,26.0,78,0.00,,,0.00,weatherlink.com 1.10,2013-05-30 16:09:00,
2013-05-30 11:24:00,79.7,73.0,29.86,South,179,16.0,24.0,79,0.00,,,0.00,weatherlink.com 1.10,2013-05-30 16:24:00,
2013-05-30 11:39:00,78.6,71.0,29.86,SSE,158,17.0,25.0,78,0.00,,,0.00,weatherlink.com 1.10,2013-05-30 16:39:00,
2013-05-30 11:54:00,79.0,71.0,29.86,SSE,167,16.0,25.0,77,0.00,,,0.00,weatherlink.com 1.10,2013-05-30 16:54:00,
2013-05-30 12:10:00,80.5,72.0,29.86,SSE,149,14.0,22.0,74,0.00,,,0.00,weatherlink.com 1.10,2013-05-30 17:10:00,
2013-05-30 12:25:00,80.5,72.0,29.85,South,169,18.0,23.0,75,0.00,,,0.00,weatherlink.com 1.10,2013-05-30 17:25:00,
2013-05-30 12:40:00,80.1,71.0,29.85,SSW,197,15.0,28.0,73,0.00,,,0.00,weatherlink.com 1.10,2013-05-30 17:40:00,
2013-05-30 12:55:00,80.5,72.0,29.85,South,184,20.0,26.0,74,0.00,,,0.00,weatherlink.com 1.10,2013-05-30 17:55:00,
2013-05-30 13:10:00,80.1,71.0,29.85,SSE,166,15.0,25.0,73,0.00,,,0.00,weatherlink.com 1.10,2013-05-30 18:10:00,
2013-05-30 13:25:00,79.8,71.0,29.84,South,179,25.0,25.0,75,0.00,,,0.00,weatherlink.com 1.10,2013-05-30 18:25:00,
2013-05-30 13:40:00,81.6,71.0,29.83,South,191,19.0,27.0,69,0.00,,,0.00,weatherlink.com 1.10,2013-05-30 18:40:00,
2013-05-30 13:55:00,81.6,71.0,29.83,SE,143,17.0,30.0,69,0.00,,,0.00,weatherlink.com 1.10,2013-05-30 18:55:00,
2013-05-30 14:10:00,82.0,71.0,29.82,SE,134,13.0,28.0,70,0.00,,,0.00,weatherlink.com 1.10,2013-05-30 19:10:00,
2013-05-30 14:25:00,81.7,71.0,29.82,South,174,17.0,30.0,69,0.00,,,0.00,weatherlink.com 1.10,2013-05-30 19:25:00,
2013-05-30 14:40:00,81.9,71.0,29.82,SSE,156,19.0,28.0,69,0.00,,,0.00,weatherlink.com 1.10,2013-05-30 19:40:00,
2013-05-30 14:55:00,81.4,70.0,29.81,SSE,158,24.0,25.0,69,0.00,,,0.00,weatherlink.com 1.10,2013-05-30 19:55:00,
2013-05-30 15:10:00,83.2,71.0,29.80,SE,143,18.0,26.0,67,0.00,,,0.00,weatherlink.com 1.10,2013-05-30 20:10:00,
2013-05-30 15:25:00,81.9,70.0,29.81,SSW,212,19.0,29.0,68,0.00,,,0.00,weatherlink.com 1.10,2013-05-30 20:25:00,
2013-05-30 15:40:00,82.7,70.0,29.80,South,171,19.0,30.0,66,0.00,,,0.00,weatherlink.com 1.10,2013-05-30 20:40:00,
2013-05-30 15:55:00,83.5,70.0,29.80,South,187,19.0,28.0,64,0.00,,,0.00,weatherlink.com 1.10,2013-05-30 20:55:00,
2013-05-30 16:10:00,82.7,71.0,29.79,South,180,15.0,26.0,67,0.00,,,0.00,weatherlink.com 1.10,2013-05-30 21:10:00,
2013-05-30 16:25:00,82.2,70.0,29.79,South,177,18.0,25.0,66,0.00,,,0.00,weatherlink.com 1.10,2013-05-30 21:25:00,
2013-05-30 16:40:00,80.7,68.0,29.78,SSE,156,19.0,29.0,65,0.00,,,0.00,weatherlink.com 1.10,2013-05-30 21:40:00,
2013-05-30 16:55:00,82.3,69.0,29.77,South,180,14.0,26.0,64,0.00,,,0.00,weatherlink.com 1.10,2013-05-30 21:55:00,
2013-05-30 17:10:00,80.8,67.0,29.76,South,174,17.0,28.0,63,0.00,,,0.00,weatherlink.com 1.10,2013-05-30 22:10:00,
2013-05-30 17:40:00,81.1,70.0,29.76,SSW,193,13.0,28.0,69,0.00,,,0.00,weatherlink.com 1.10,2013-05-30 22:40:00,
2013-05-30 17:55:00,81.4,68.0,29.77,South,173,16.0,29.0,64,0.00,,,0.00,weatherlink.com 1.10,2013-05-30 22:55:00,
2013-05-30 18:10:00,81.0,67.0,29.78,SSW,194,25.0,29.0,63,0.00,,,0.00,weatherlink.com 1.10,2013-05-30 23:10:00,
2013-05-30 18:25:00,81.0,68.0,29.78,SSW,201,10.0,32.0,65,0.00,,,0.00,weatherlink.com 1.10,2013-05-30 23:25:00,
2013-05-30 18:40:00,79.4,67.0,29.78,SSW,196,17.0,30.0,67,0.00,,,0.00,weatherlink.com 1.10,2013-05-30 23:40:00,
2013-05-30 18:55:00,79.2,67.0,29.78,South,173,14.0,26.0,67,0.00,,,0.00,weatherlink.com 1.10,2013-05-30 23:55:00,
2013-05-30 19:10:00,77.6,67.0,29.78,SSW,200,13.0,23.0,70,0.00,,,0.00,weatherlink.com 1.10,2013-05-31 00:10:00,
2013-05-30 19:25:00,77.2,67.0,29.79,SSW,205,15.0,21.0,71,0.00,,,0.00,weatherlink.com 1.10,2013-05-31 00:25:00,
2013-05-30 19:40:00,77.3,68.0,29.79,SSW,197,9.0,20.0,72,0.00,,,0.00,weatherlink.com 1.10,2013-05-31 00:40:00,
2013-05-30 19:55:00,77.4,68.0,29.79,South,191,21.0,21.0,72,0.00,,,0.00,weatherlink.com 1.10,2013-05-31 00:55:00,
2013-05-30 20:10:00,77.2,68.0,29.78,SSW,203,12.0,20.0,73,0.00,,,0.00,weatherlink.com 1.10,2013-05-31 01:10:00,
2013-05-30 20:25:00,72.8,62.0,29.80,WNW,290,7.0,23.0,69,0.00,,,0.00,weatherlink.com 1.10,2013-05-31 01:25:00,
2013-05-30 20:40:00,68.8,62.0,29.81,NW,315,3.0,12.0,79,0.00,,,0.00,weatherlink.com 1.10,2013-05-31 01:40:00,
2013-05-30 21:10:00,65.9,62.0,29.82,NNE,27,0.0,8.0,86,0.00,,,0.00,weatherlink.com 1.10,2013-05-31 02:10:00,
2013-05-30 21:26:00,64.0,62.0,29.87,WNW,286,9.0,18.0,93,0.16,,,0.16,weatherlink.com 1.10,2013-05-31 02:26:00,
2013-05-30 21:56:00,63.3,62.0,29.86,West,276,1.0,5.0,95,0.19,,,0.19,weatherlink.com 1.10,2013-05-31 02:56:00,
2013-05-30 22:11:00,63.3,62.0,29.86,West,271,2.0,5.0,96,0.19,,,0.19,weatherlink.com 1.10,2013-05-31 03:11:00,
2013-05-30 22:26:00,63.2,62.0,29.86,SSW,193,0.0,1.0,96,0.03,,,0.19,weatherlink.com 1.10,2013-05-31 03:26:00,
2013-05-30 22:41:00,63.2,62.0,29.86,SSE,155,1.0,2.0,97,0.00,,,0.19,weatherlink.com 1.10,2013-05-31 03:41:00,
2013-05-30 22:56:00,63.8,63.0,29.85,SE,138,3.0,5.0,96,0.00,,,0.19,weatherlink.com 1.10,2013-05-31 03:56:00,
2013-05-30 23:11:00,63.9,63.0,29.84,East,96,2.0,4.0,95,0.00,,,0.19,weatherlink.com 1.10,2013-05-31 04:11:00,
2013-05-30 23:26:00,63.9,63.0,29.84,ESE,114,4.0,7.0,96,0.00,,,0.19,weatherlink.com 1.10,2013-05-31 04:26:00,
2013-05-30 23:41:00,64.5,63.0,29.84,ESE,120,3.0,7.0,96,0.00,,,0.19,weatherlink.com 1.10,2013-05-31 04:41:00,
2013-05-30 23:56:00,65.1,63.0,29.82,SSE,148,6.0,8.0,94,0.00,,,0.19,weatherlink.com 1.10,2013-05-31 04:56:00,